date,time,SUV Intensity [MED/Hr],UV Index,Daily total [MED],Since Last [MED]
26/09/2022,00:01:05,0.000,0.0,0.0,0.0
26/09/2022,00:02:04,-0.001,0.0,0.0,0.0
26/09/2022,00:03:04,0.000,0.0,0.0,0.0
26/09/2022,00:04:04,-0.001,0.0,0.0,0.0
26/09/2022,00:05:04,0.000,0.0,0.0,0.0
26/09/2022,00:06:02,-0.001,0.0,0.0,0.0
26/09/2022,00:07:04,0.000,0.0,0.0,0.0
26/09/2022,00:08:04,0.000,0.0,0.0,0.0
26/09/2022,00:09:04,0.000,0.0,0.0,0.0
26/09/2022,00:10:04,-0.000,0.0,0.0,0.0
26/09/2022,00:11:04,0.000,0.0,0.0,0.0
26/09/2022,00:12:04,0.000,0.0,0.0,0.0
26/09/2022,00:13:04,-0.002,0.0,0.0,0.0
26/09/2022,00:14:04,-0.000,0.0,0.0,0.0
26/09/2022,00:15:04,0.000,0.0,0.0,0.0
26/09/2022,00:16:04,0.001,0.0,0.0,0.0
26/09/2022,00:17:05,0.000,0.0,0.0,0.0
26/09/2022,00:18:04,-0.000,0.0,0.0,0.0
26/09/2022,00:19:04,0.000,0.0,0.0,0.0
26/09/2022,00:20:04,-0.000,0.0,0.0,0.0
26/09/2022,00:21:04,0.000,0.0,0.0,0.0
26/09/2022,00:22:04,0.000,0.0,0.0,0.0
26/09/2022,00:23:04,0.000,0.0,0.0,0.0
26/09/2022,00:24:05,0.000,0.0,0.0,0.0
26/09/2022,00:25:04,0.000,0.0,0.0,0.0
26/09/2022,00:26:04,0.001,0.0,0.0,0.0
26/09/2022,00:27:05,0.000,0.0,0.0,0.0
26/09/2022,00:28:04,-0.001,0.0,0.0,0.0
26/09/2022,00:29:04,-0.000,0.0,0.0,0.0
26/09/2022,00:30:04,-0.001,0.0,0.0,0.0
26/09/2022,00:31:04,0.000,0.0,0.0,0.0
26/09/2022,00:32:04,0.000,0.0,0.0,0.0
26/09/2022,00:33:04,-0.001,0.0,0.0,0.0
26/09/2022,00:34:04,0.001,0.0,0.0,0.0
26/09/2022,00:35:04,-0.001,0.0,0.0,0.0
26/09/2022,00:36:04,0.000,0.0,0.0,0.0
26/09/2022,00:37:04,0.001,0.0,0.0,0.0
26/09/2022,00:38:04,0.001,0.0,0.0,0.0
26/09/2022,00:39:04,0.000,0.0,0.0,0.0
26/09/2022,00:40:04,0.000,0.0,0.0,0.0
26/09/2022,00:41:04,0.000,0.0,0.0,0.0
26/09/2022,00:42:05,0.000,0.0,0.0,0.0
26/09/2022,00:43:04,-0.001,0.0,0.0,0.0
26/09/2022,00:44:04,-0.000,0.0,0.0,0.0
26/09/2022,00:45:04,-0.000,0.0,0.0,0.0
26/09/2022,00:46:12,0.000,0.0,0.0,0.0
26/09/2022,00:47:06,-0.001,0.0,0.0,0.0
26/09/2022,00:48:04,-0.001,0.0,0.0,0.0
26/09/2022,00:49:06,0.000,0.0,0.0,0.0
26/09/2022,00:50:04,-0.000,0.0,0.0,0.0
26/09/2022,00:51:04,0.001,0.0,0.0,0.0
26/09/2022,00:52:04,0.000,0.0,0.0,0.0
26/09/2022,00:53:04,0.000,0.0,0.0,0.0
26/09/2022,00:54:04,0.000,0.0,0.0,0.0
26/09/2022,00:55:06,-0.001,0.0,0.0,0.0
26/09/2022,00:56:12,0.000,0.0,0.0,0.0
26/09/2022,00:57:04,0.000,0.0,0.0,0.0
26/09/2022,00:58:04,0.000,0.0,0.0,0.0
26/09/2022,00:59:04,-0.000,0.0,0.0,0.0
26/09/2022,01:00:05,0.001,0.0,0.0,0.0
26/09/2022,01:01:04,0.002,0.0,0.0,0.0
26/09/2022,01:02:04,0.001,0.0,0.0,0.0
26/09/2022,01:03:04,0.001,0.0,0.0,0.0
26/09/2022,01:04:05,0.001,0.0,0.0,0.0
26/09/2022,01:05:04,0.001,0.0,0.0,0.0
26/09/2022,01:06:13,0.000,0.0,0.0,0.0
26/09/2022,01:07:04,0.001,0.0,0.0,0.0
26/09/2022,01:08:05,0.001,0.0,0.0,0.0
26/09/2022,01:09:12,0.001,0.0,0.0,0.0
26/09/2022,01:10:04,0.001,0.0,0.0,0.0
26/09/2022,01:11:04,0.000,0.0,0.0,0.0
26/09/2022,01:12:04,-0.000,0.0,0.0,0.0
26/09/2022,01:13:04,0.001,0.0,0.0,0.0
26/09/2022,01:14:04,0.001,0.0,0.0,0.0
26/09/2022,01:15:04,0.001,0.0,0.0,0.0
26/09/2022,01:16:05,0.001,0.0,0.0,0.0
26/09/2022,01:17:04,-0.000,0.0,0.0,0.0
26/09/2022,01:18:04,0.000,0.0,0.0,0.0
26/09/2022,01:19:12,0.001,0.0,0.0,0.0
26/09/2022,01:20:04,0.001,0.0,0.0,0.0
26/09/2022,01:21:05,0.001,0.0,0.0,0.0
26/09/2022,01:22:04,0.001,0.0,0.0,0.0
26/09/2022,01:23:04,0.001,0.0,0.0,0.0
26/09/2022,01:24:04,-0.001,0.0,0.0,0.0
26/09/2022,01:25:05,0.001,0.0,0.0,0.0
26/09/2022,01:26:04,0.001,0.0,0.0,0.0
26/09/2022,01:27:04,0.001,0.0,0.0,0.0
26/09/2022,01:28:04,0.000,0.0,0.0,0.0
26/09/2022,01:29:04,0.002,0.0,0.0,0.0
26/09/2022,01:30:04,-0.000,0.0,0.0,0.0
26/09/2022,01:31:04,0.001,0.0,0.0,0.0
26/09/2022,01:32:05,-0.001,0.0,0.0,0.0
26/09/2022,01:33:05,0.000,0.0,0.0,0.0
26/09/2022,01:34:04,0.001,0.0,0.0,0.0
26/09/2022,01:35:04,0.001,0.0,0.0,0.0
26/09/2022,01:36:04,0.001,0.0,0.0,0.0
26/09/2022,01:37:13,0.001,0.0,0.0,0.0
26/09/2022,01:38:04,0.001,0.0,0.0,0.0
26/09/2022,01:39:12,0.000,0.0,0.0,0.0
26/09/2022,01:40:12,0.001,0.0,0.0,0.0
26/09/2022,01:41:04,0.000,0.0,0.0,0.0
26/09/2022,01:42:04,0.000,0.0,0.0,0.0
26/09/2022,01:43:12,0.001,0.0,0.0,0.0
26/09/2022,01:44:04,0.001,0.0,0.0,0.0
26/09/2022,01:45:04,0.001,0.0,0.0,0.0
26/09/2022,01:46:05,0.000,0.0,0.0,0.0
26/09/2022,01:47:05,0.001,0.0,0.0,0.0
26/09/2022,01:48:05,0.000,0.0,0.0,0.0
26/09/2022,01:49:04,0.000,0.0,0.0,0.0
26/09/2022,01:50:13,0.001,0.0,0.0,0.0
26/09/2022,01:51:04,0.000,0.0,0.0,0.0
26/09/2022,01:52:04,0.001,0.0,0.0,0.0
26/09/2022,01:53:04,0.000,0.0,0.0,0.0
26/09/2022,01:54:04,0.001,0.0,0.0,0.0
26/09/2022,01:55:05,0.001,0.0,0.0,0.0
26/09/2022,01:56:04,0.000,0.0,0.0,0.0
26/09/2022,01:57:05,0.000,0.0,0.0,0.0
26/09/2022,01:58:04,-0.000,0.0,0.0,0.0
26/09/2022,01:59:05,-0.001,0.0,0.0,0.0
26/09/2022,02:00:13,0.000,0.0,0.0,0.0
26/09/2022,02:01:03,0.001,0.0,0.0,0.0
26/09/2022,02:02:04,0.000,0.0,0.0,0.0
26/09/2022,02:03:05,-0.001,0.0,0.0,0.0
26/09/2022,02:04:04,0.000,0.0,0.0,0.0
26/09/2022,02:05:04,0.000,0.0,0.0,0.0
26/09/2022,02:06:04,-0.001,0.0,0.0,0.0
26/09/2022,02:07:05,0.000,0.0,0.0,0.0
26/09/2022,02:08:05,0.000,0.0,0.0,0.0
26/09/2022,02:09:05,0.000,0.0,0.0,0.0
26/09/2022,02:10:12,0.000,0.0,0.0,0.0
26/09/2022,02:11:12,-0.000,0.0,0.0,0.0
26/09/2022,02:12:04,0.000,0.0,0.0,0.0
26/09/2022,02:13:04,0.000,0.0,0.0,0.0
26/09/2022,02:14:04,-0.001,0.0,0.0,0.0
26/09/2022,02:15:05,0.000,0.0,0.0,0.0
26/09/2022,02:16:04,-0.000,0.0,0.0,0.0
26/09/2022,02:17:04,-0.000,0.0,0.0,0.0
26/09/2022,02:18:04,0.000,0.0,0.0,0.0
26/09/2022,02:19:04,0.000,0.0,0.0,0.0
26/09/2022,02:20:04,-0.000,0.0,0.0,0.0
26/09/2022,02:21:13,0.000,0.0,0.0,0.0
26/09/2022,02:22:04,0.000,0.0,0.0,0.0
26/09/2022,02:23:04,0.000,0.0,0.0,0.0
26/09/2022,02:24:04,-0.001,0.0,0.0,0.0
26/09/2022,02:25:04,0.000,0.0,0.0,0.0
26/09/2022,02:26:05,-0.000,0.0,0.0,0.0
26/09/2022,02:27:04,0.000,0.0,0.0,0.0
26/09/2022,02:28:04,0.000,0.0,0.0,0.0
26/09/2022,02:29:05,0.000,0.0,0.0,0.0
26/09/2022,02:30:04,0.000,0.0,0.0,0.0
26/09/2022,02:31:12,0.000,0.0,0.0,0.0
26/09/2022,02:32:04,0.000,0.0,0.0,0.0
26/09/2022,02:33:04,0.000,0.0,0.0,0.0
26/09/2022,02:34:05,-0.001,0.0,0.0,0.0
26/09/2022,02:35:04,-0.001,0.0,0.0,0.0
26/09/2022,02:36:04,0.000,0.0,0.0,0.0
26/09/2022,02:37:05,-0.001,0.0,0.0,0.0
26/09/2022,02:38:13,0.001,0.0,0.0,0.0
26/09/2022,02:39:04,-0.001,0.0,0.0,0.0
26/09/2022,02:40:04,0.001,0.0,0.0,0.0
26/09/2022,02:41:13,0.000,0.0,0.0,0.0
26/09/2022,02:42:04,0.000,0.0,0.0,0.0
26/09/2022,02:43:04,0.001,0.0,0.0,0.0
26/09/2022,02:44:05,0.001,0.0,0.0,0.0
26/09/2022,02:45:04,0.000,0.0,0.0,0.0
26/09/2022,02:46:04,0.001,0.0,0.0,0.0
26/09/2022,02:47:04,0.000,0.0,0.0,0.0
26/09/2022,02:48:13,0.001,0.0,0.0,0.0
26/09/2022,02:49:04,0.000,0.0,0.0,0.0
26/09/2022,02:50:04,0.001,0.0,0.0,0.0
26/09/2022,02:51:04,0.001,0.0,0.0,0.0
26/09/2022,02:52:04,0.000,0.0,0.0,0.0
26/09/2022,02:53:04,0.000,0.0,0.0,0.0
26/09/2022,02:54:05,0.000,0.0,0.0,0.0
26/09/2022,02:55:04,0.000,0.0,0.0,0.0
26/09/2022,02:56:04,0.000,0.0,0.0,0.0
26/09/2022,02:57:04,0.000,0.0,0.0,0.0
26/09/2022,02:58:04,0.001,0.0,0.0,0.0
26/09/2022,02:59:05,-0.001,0.0,0.0,0.0
26/09/2022,03:00:04,0.000,0.0,0.0,0.0
26/09/2022,03:01:04,0.000,0.0,0.0,0.0
26/09/2022,03:02:04,0.000,0.0,0.0,0.0
26/09/2022,03:03:04,0.001,0.0,0.0,0.0
26/09/2022,03:04:04,0.000,0.0,0.0,0.0
26/09/2022,03:05:04,0.000,0.0,0.0,0.0
26/09/2022,03:06:04,0.000,0.0,0.0,0.0
26/09/2022,03:07:05,0.001,0.0,0.0,0.0
26/09/2022,03:08:04,-0.001,0.0,0.0,0.0
26/09/2022,03:09:13,0.000,0.0,0.0,0.0
26/09/2022,03:10:04,0.000,0.0,0.0,0.0
26/09/2022,03:11:04,0.000,0.0,0.0,0.0
26/09/2022,03:12:04,-0.001,0.0,0.0,0.0
26/09/2022,03:13:05,-0.001,0.0,0.0,0.0
26/09/2022,03:14:05,0.000,0.0,0.0,0.0
26/09/2022,03:15:04,-0.001,0.0,0.0,0.0
26/09/2022,03:16:05,0.000,0.0,0.0,0.0
26/09/2022,03:17:05,0.000,0.0,0.0,0.0
26/09/2022,03:18:04,0.000,0.0,0.0,0.0
26/09/2022,03:19:13,0.000,0.0,0.0,0.0
26/09/2022,03:20:04,0.000,0.0,0.0,0.0
26/09/2022,03:21:04,0.000,0.0,0.0,0.0
26/09/2022,03:22:05,-0.001,0.0,0.0,0.0
26/09/2022,03:23:05,0.000,0.0,0.0,0.0
26/09/2022,03:24:06,0.000,0.0,0.0,0.0
26/09/2022,03:25:05,0.000,0.0,0.0,0.0
26/09/2022,03:26:04,-0.000,0.0,0.0,0.0
26/09/2022,03:27:04,0.001,0.0,0.0,0.0
26/09/2022,03:28:05,-0.001,0.0,0.0,0.0
26/09/2022,03:29:04,0.001,0.0,0.0,0.0
26/09/2022,03:30:13,-0.000,0.0,0.0,0.0
26/09/2022,03:31:04,0.000,0.0,0.0,0.0
26/09/2022,03:32:04,0.000,0.0,0.0,0.0
26/09/2022,03:33:04,0.000,0.0,0.0,0.0
26/09/2022,03:34:05,0.000,0.0,0.0,0.0
26/09/2022,03:35:04,0.001,0.0,0.0,0.0
26/09/2022,03:36:04,-0.001,0.0,0.0,0.0
26/09/2022,03:37:05,0.001,0.0,0.0,0.0
26/09/2022,03:38:04,0.000,0.0,0.0,0.0
26/09/2022,03:39:04,0.000,0.0,0.0,0.0
26/09/2022,03:40:13,0.000,0.0,0.0,0.0
26/09/2022,03:41:05,0.001,0.0,0.0,0.0
26/09/2022,03:42:05,0.001,0.0,0.0,0.0
26/09/2022,03:43:04,0.000,0.0,0.0,0.0
26/09/2022,03:44:04,-0.001,0.0,0.0,0.0
26/09/2022,03:45:05,-0.002,0.0,0.0,0.0
26/09/2022,03:46:05,-0.000,0.0,0.0,0.0
26/09/2022,03:47:04,0.000,0.0,0.0,0.0
26/09/2022,03:48:04,0.000,0.0,0.0,0.0
26/09/2022,03:49:04,-0.000,0.0,0.0,0.0
26/09/2022,03:50:13,0.000,0.0,0.0,0.0
26/09/2022,03:51:05,0.000,0.0,0.0,0.0
26/09/2022,03:52:04,-0.000,0.0,0.0,0.0
26/09/2022,03:53:04,0.000,0.0,0.0,0.0
26/09/2022,03:54:04,0.000,0.0,0.0,0.0
26/09/2022,03:55:04,0.000,0.0,0.0,0.0
26/09/2022,03:56:05,0.000,0.0,0.0,0.0
26/09/2022,03:57:05,-0.000,0.0,0.0,0.0
26/09/2022,03:58:05,-0.000,0.0,0.0,0.0
26/09/2022,03:59:04,0.001,0.0,0.0,0.0
26/09/2022,04:00:04,0.000,0.0,0.0,0.0
26/09/2022,04:01:05,-0.000,0.0,0.0,0.0
26/09/2022,04:02:04,0.000,0.0,0.0,0.0
26/09/2022,04:03:12,0.000,0.0,0.0,0.0
26/09/2022,04:04:13,0.000,0.0,0.0,0.0
26/09/2022,04:05:04,0.000,0.0,0.0,0.0
26/09/2022,04:06:05,0.000,0.0,0.0,0.0
26/09/2022,04:07:05,-0.001,0.0,0.0,0.0
26/09/2022,04:08:05,0.000,0.0,0.0,0.0
26/09/2022,04:09:05,-0.000,0.0,0.0,0.0
26/09/2022,04:10:04,-0.001,0.0,0.0,0.0
26/09/2022,04:11:04,0.001,0.0,0.0,0.0
26/09/2022,04:12:05,0.000,0.0,0.0,0.0
26/09/2022,04:13:05,-0.000,0.0,0.0,0.0
26/09/2022,04:14:05,-0.000,0.0,0.0,0.0
26/09/2022,04:15:04,-0.001,0.0,0.0,0.0
26/09/2022,04:16:04,0.000,0.0,0.0,0.0
26/09/2022,04:17:05,-0.001,0.0,0.0,0.0
26/09/2022,04:18:04,0.000,0.0,0.0,0.0
26/09/2022,04:19:04,-0.000,0.0,0.0,0.0
26/09/2022,04:20:05,-0.000,0.0,0.0,0.0
26/09/2022,04:21:05,0.000,0.0,0.0,0.0
26/09/2022,04:22:05,0.000,0.0,0.0,0.0
26/09/2022,04:23:04,0.000,0.0,0.0,0.0
26/09/2022,04:24:05,-0.000,0.0,0.0,0.0
26/09/2022,04:25:05,-0.001,0.0,0.0,0.0
26/09/2022,04:26:05,0.000,0.0,0.0,0.0
26/09/2022,04:27:04,0.001,0.0,0.0,0.0
26/09/2022,04:28:13,0.001,0.0,0.0,0.0
26/09/2022,04:29:05,0.000,0.0,0.0,0.0
26/09/2022,04:30:04,0.000,0.0,0.0,0.0
26/09/2022,04:31:05,-0.000,0.0,0.0,0.0
26/09/2022,04:32:04,-0.001,0.0,0.0,0.0
26/09/2022,04:33:05,-0.001,0.0,0.0,0.0
26/09/2022,04:34:12,-0.000,0.0,0.0,0.0
26/09/2022,04:35:05,-0.001,0.0,0.0,0.0
26/09/2022,04:36:04,-0.000,0.0,0.0,0.0
26/09/2022,04:37:05,-0.000,0.0,0.0,0.0
26/09/2022,04:38:04,-0.001,0.0,0.0,0.0
26/09/2022,04:39:04,-0.000,0.0,0.0,0.0
26/09/2022,04:40:05,0.000,0.0,0.0,0.0
26/09/2022,04:41:13,-0.001,0.0,0.0,0.0
26/09/2022,04:42:04,-0.000,0.0,0.0,0.0
26/09/2022,04:43:04,-0.000,0.0,0.0,0.0
26/09/2022,04:44:04,0.001,0.0,0.0,0.0
26/09/2022,04:45:05,-0.000,0.0,0.0,0.0
26/09/2022,04:46:05,-0.000,0.0,0.0,0.0
26/09/2022,04:47:05,-0.000,0.0,0.0,0.0
26/09/2022,04:48:05,-0.000,0.0,0.0,0.0
26/09/2022,04:49:04,-0.001,0.0,0.0,0.0
26/09/2022,04:50:05,0.000,0.0,0.0,0.0
26/09/2022,04:51:04,-0.000,0.0,0.0,0.0
26/09/2022,04:52:05,-0.000,0.0,0.0,0.0
26/09/2022,04:53:05,-0.001,0.0,0.0,0.0
26/09/2022,04:54:05,-0.000,0.0,0.0,0.0
26/09/2022,04:55:04,0.000,0.0,0.0,0.0
26/09/2022,04:56:05,-0.000,0.0,0.0,0.0
26/09/2022,04:57:04,-0.000,0.0,0.0,0.0
26/09/2022,04:58:04,-0.000,0.0,0.0,0.0
26/09/2022,04:59:04,0.000,0.0,0.0,0.0
26/09/2022,05:00:04,0.000,0.0,0.0,0.0
26/09/2022,05:01:04,-0.001,0.0,0.0,0.0
26/09/2022,05:02:06,0.001,0.0,0.0,0.0
26/09/2022,05:03:05,-0.000,0.0,0.0,0.0
26/09/2022,05:04:04,-0.000,0.0,0.0,0.0
26/09/2022,05:05:04,-0.000,0.0,0.0,0.0
26/09/2022,05:06:05,0.001,0.0,0.0,0.0
26/09/2022,05:07:05,-0.000,0.0,0.0,0.0
26/09/2022,05:08:13,0.000,0.0,0.0,0.0
26/09/2022,05:09:04,-0.001,0.0,0.0,0.0
26/09/2022,05:10:05,-0.001,0.0,0.0,0.0
26/09/2022,05:11:04,-0.000,0.0,0.0,0.0
26/09/2022,05:12:04,-0.002,0.0,0.0,0.0
26/09/2022,05:13:05,-0.001,0.0,0.0,0.0
26/09/2022,05:14:05,-0.000,0.0,0.0,0.0
26/09/2022,05:15:13,-0.000,0.0,0.0,0.0
26/09/2022,05:16:04,-0.001,0.0,0.0,0.0
26/09/2022,05:17:04,-0.000,0.0,0.0,0.0
26/09/2022,05:18:05,-0.002,0.0,0.0,0.0
26/09/2022,05:19:05,0.001,0.0,0.0,0.0
26/09/2022,05:20:05,-0.000,0.0,0.0,0.0
26/09/2022,05:21:05,-0.000,0.0,0.0,0.0
26/09/2022,05:21:56,-0.001,0.0,0.0,0.0
26/09/2022,05:23:05,-0.000,0.0,0.0,0.0
26/09/2022,05:24:05,-0.000,0.0,0.0,0.0
26/09/2022,05:25:12,0.001,0.0,0.0,0.0
26/09/2022,05:26:05,-0.001,0.0,0.0,0.0
26/09/2022,05:27:04,-0.001,0.0,0.0,0.0
26/09/2022,05:28:05,-0.000,0.0,0.0,0.0
26/09/2022,05:29:04,-0.001,0.0,0.0,0.0
26/09/2022,05:30:05,-0.001,0.0,0.0,0.0
26/09/2022,05:31:04,-0.001,0.0,0.0,0.0
26/09/2022,05:32:05,-0.000,0.0,0.0,0.0
26/09/2022,05:33:12,-0.000,0.0,0.0,0.0
26/09/2022,05:34:05,-0.000,0.0,0.0,0.0
26/09/2022,05:35:12,0.001,0.0,0.0,0.0
26/09/2022,05:36:13,0.001,0.0,0.0,0.0
26/09/2022,05:37:04,0.000,0.0,0.0,0.0
26/09/2022,05:38:05,0.000,0.0,0.0,0.0
26/09/2022,05:39:13,-0.000,0.0,0.0,0.0
26/09/2022,05:40:05,0.000,0.0,0.0,0.0
26/09/2022,05:41:04,-0.000,0.0,0.0,0.0
26/09/2022,05:42:05,-0.000,0.0,0.0,0.0
26/09/2022,05:43:05,0.000,0.0,0.0,0.0
26/09/2022,05:44:05,0.000,0.0,0.0,0.0
26/09/2022,05:45:05,0.000,0.0,0.0,0.0
26/09/2022,05:46:12,0.000,0.0,0.0,0.0
26/09/2022,05:47:04,-0.000,0.0,0.0,0.0
26/09/2022,05:48:04,-0.000,0.0,0.0,0.0
26/09/2022,05:49:13,0.000,0.0,0.0,0.0
26/09/2022,05:50:05,0.000,0.0,0.0,0.0
26/09/2022,05:51:05,0.001,0.0,0.0,0.0
26/09/2022,05:52:05,0.001,0.0,0.0,0.0
26/09/2022,05:53:05,0.001,0.0,0.0,0.0
26/09/2022,05:54:05,0.001,0.0,0.0,0.0
26/09/2022,05:55:05,0.001,0.0,0.0,0.0
26/09/2022,05:56:13,0.001,0.0,0.0,0.0
26/09/2022,05:57:05,0.002,0.0,0.0,0.0
26/09/2022,05:58:04,0.002,0.0,0.0,0.0
26/09/2022,05:59:05,0.002,0.0,0.0,0.0
26/09/2022,06:00:05,0.002,0.0,0.0,0.0
26/09/2022,06:01:05,0.002,0.0,0.0,0.0
26/09/2022,06:02:05,0.003,0.0,0.0,0.0
26/09/2022,06:03:05,0.003,0.0,0.0,0.0
26/09/2022,06:04:04,0.003,0.0,0.0,0.0
26/09/2022,06:05:04,0.004,0.0,0.0,0.0
26/09/2022,06:06:13,0.005,0.0,0.0,0.0
26/09/2022,06:07:04,0.005,0.0,0.0,0.0
26/09/2022,06:08:05,0.005,0.0,0.0,0.0
26/09/2022,06:09:04,0.005,0.0,0.0,0.0
26/09/2022,06:10:05,0.007,0.0,0.0,0.0
26/09/2022,06:11:05,0.005,0.0,0.0,0.0
26/09/2022,06:12:05,0.006,0.0,0.0,0.0
26/09/2022,06:13:13,0.007,0.0,0.0,0.0
26/09/2022,06:14:05,0.007,0.0,0.0,0.0
26/09/2022,06:15:04,0.007,0.0,0.001,0.001
26/09/2022,06:16:13,0.007,0.0,0.001,0.0
26/09/2022,06:17:13,0.007,0.0,0.001,0.0
26/09/2022,06:18:05,0.007,0.0,0.001,0.0
26/09/2022,06:19:05,0.008,0.0,0.001,0.0
26/09/2022,06:20:05,0.008,0.0,0.001,0.0
26/09/2022,06:21:04,0.008,0.0,0.001,0.0
26/09/2022,06:22:05,0.009,0.0,0.001,0.0
26/09/2022,06:23:04,0.011,0.0,0.002,0.001
26/09/2022,06:24:04,0.011,0.0,0.002,0.0
26/09/2022,06:25:05,0.011,0.0,0.002,0.0
26/09/2022,06:26:13,0.013,0.0,0.002,0.0
26/09/2022,06:27:05,0.013,0.0,0.002,0.0
26/09/2022,06:28:05,0.014,0.0,0.003,0.001
26/09/2022,06:29:05,0.015,0.0,0.003,0.0
26/09/2022,06:30:05,0.015,0.0,0.003,0.0
26/09/2022,06:31:17,0.016,0.0,0.003,0.0
26/09/2022,06:33:05,0.018,0.0,0.004,0.001
26/09/2022,06:34:04,0.018,0.0,0.004,0.0
26/09/2022,06:35:05,0.019,0.0,0.004,0.0
26/09/2022,06:36:13,0.020,0.0,0.005,0.001
26/09/2022,06:37:04,0.021,0.0,0.005,0.0
26/09/2022,06:38:05,0.022,0.0,0.006,0.001
26/09/2022,06:39:05,0.022,0.0,0.006,0.0
26/09/2022,06:40:05,0.022,0.0,0.006,0.0
26/09/2022,06:41:05,0.023,0.0,0.007,0.001
26/09/2022,06:42:04,0.024,0.0,0.007,0.0
26/09/2022,06:43:06,0.024,0.0,0.007,0.0
26/09/2022,06:44:05,0.024,0.0,0.008,0.001
26/09/2022,06:45:05,0.026,0.0,0.008,0.0
26/09/2022,06:46:05,0.027,0.0,0.009,0.001
26/09/2022,06:47:05,0.029,0.0,0.009,0.0
26/09/2022,06:48:05,0.028,0.0,0.01,0.001
26/09/2022,06:49:05,0.028,0.0,0.01,0.0
26/09/2022,06:50:05,0.026,0.0,0.011,0.001
26/09/2022,06:51:05,0.023,0.0,0.011,0.0
26/09/2022,06:52:05,0.022,0.0,0.011,0.0
26/09/2022,06:53:13,0.022,0.0,0.012,0.001
26/09/2022,06:54:04,0.023,0.0,0.012,0.0
26/09/2022,06:55:05,0.019,0.0,0.012,0.0
26/09/2022,06:56:05,0.015,0.0,0.013,0.001
26/09/2022,06:57:05,0.009,0.0,0.013,0.0
26/09/2022,06:58:04,0.007,0.0,0.013,0.0
26/09/2022,06:59:05,0.010,0.0,0.013,0.0
26/09/2022,07:00:05,0.012,0.0,0.013,0.0
26/09/2022,07:01:08,0.013,0.0,0.014,0.001
26/09/2022,07:02:06,0.014,0.0,0.014,0.0
26/09/2022,07:03:13,0.016,0.0,0.014,0.0
26/09/2022,07:04:03,0.015,0.0,0.014,0.0
26/09/2022,07:05:05,0.015,0.0,0.015,0.001
26/09/2022,07:06:05,0.016,0.0,0.015,0.0
26/09/2022,07:07:05,0.016,0.0,0.015,0.0
26/09/2022,07:08:05,0.018,0.0,0.015,0.0
26/09/2022,07:09:05,0.019,0.0,0.016,0.001
26/09/2022,07:10:05,0.017,0.0,0.016,0.0
26/09/2022,07:11:05,0.018,0.0,0.016,0.0
26/09/2022,07:12:05,0.020,0.0,0.017,0.001
26/09/2022,07:13:21,0.022,0.0,0.017,0.0
26/09/2022,07:15:05,0.020,0.0,0.018,0.001
26/09/2022,07:16:05,0.020,0.0,0.018,0.0
26/09/2022,07:17:05,0.020,0.0,0.018,0.0
26/09/2022,07:18:05,0.021,0.0,0.019,0.001
26/09/2022,07:19:05,0.022,0.0,0.019,0.0
26/09/2022,07:20:05,0.024,0.0,0.019,0.0
26/09/2022,07:21:05,0.027,0.0,0.02,0.001
26/09/2022,07:22:05,0.029,0.0,0.02,0.0
26/09/2022,07:23:05,0.032,0.0,0.021,0.001
26/09/2022,07:24:05,0.033,0.0,0.021,0.0
26/09/2022,07:25:05,0.037,0.0,0.022,0.001
26/09/2022,07:26:05,0.043,0.0,0.023,0.001
26/09/2022,07:27:05,0.049,0.0,0.023,0.0
26/09/2022,07:28:04,0.056,0.0,0.024,0.001
26/09/2022,07:29:05,0.062,0.0,0.025,0.001
26/09/2022,07:30:04,0.068,0.0,0.026,0.001
26/09/2022,07:31:05,0.072,0.0,0.028,0.002
26/09/2022,07:32:05,0.077,0.0,0.029,0.001
26/09/2022,07:33:05,0.078,0.0,0.03,0.001
26/09/2022,07:34:05,0.079,0.0,0.031,0.001
26/09/2022,07:35:05,0.080,0.0,0.033,0.002
26/09/2022,07:36:05,0.081,0.0,0.034,0.001
26/09/2022,07:37:05,0.082,0.0,0.035,0.001
26/09/2022,07:38:05,0.085,0.0,0.037,0.002
26/09/2022,07:39:05,0.087,0.0,0.038,0.001
26/09/2022,07:40:05,0.088,0.0,0.04,0.002
26/09/2022,07:41:14,0.090,0.0,0.041,0.001
26/09/2022,07:42:05,0.092,0.0,0.043,0.002
26/09/2022,07:43:05,0.094,0.0,0.044,0.001
26/09/2022,07:44:05,0.097,0.0,0.046,0.002
26/09/2022,07:45:05,0.102,0.0,0.048,0.002
26/09/2022,07:46:05,0.106,0.0,0.049,0.001
26/09/2022,07:47:13,0.112,0.0,0.051,0.002
26/09/2022,07:48:05,0.116,0.0,0.053,0.002
26/09/2022,07:49:05,0.120,0.0,0.055,0.002
26/09/2022,07:50:05,0.123,0.0,0.057,0.002
26/09/2022,07:51:05,0.127,0.0,0.059,0.002
26/09/2022,07:52:05,0.129,0.0,0.061,0.002
26/09/2022,07:53:05,0.129,0.0,0.063,0.002
26/09/2022,07:54:05,0.128,0.0,0.065,0.002
26/09/2022,07:55:05,0.127,0.0,0.068,0.003
26/09/2022,07:56:05,0.128,0.0,0.07,0.002
26/09/2022,07:57:05,0.132,0.0,0.072,0.002
26/09/2022,07:58:05,0.133,0.0,0.074,0.002
26/09/2022,07:59:05,0.135,0.0,0.076,0.002
26/09/2022,08:00:14,0.138,0.0,0.079,0.003
26/09/2022,08:01:03,0.142,0.0,0.081,0.002
26/09/2022,08:02:05,0.147,0.0,0.083,0.002
26/09/2022,08:03:05,0.153,0.0,0.086,0.003
26/09/2022,08:04:05,0.158,0.0,0.088,0.002
26/09/2022,08:05:05,0.162,0.0,0.091,0.003
26/09/2022,08:06:05,0.167,0.0,0.094,0.003
26/09/2022,08:07:05,0.170,0.0,0.097,0.003
26/09/2022,08:08:05,0.190,0.0,0.1,0.003
26/09/2022,08:09:05,0.189,0.0,0.103,0.003
26/09/2022,08:10:13,0.186,0.0,0.106,0.003
26/09/2022,08:11:05,0.191,0.0,0.109,0.003
26/09/2022,08:12:05,0.205,0.0,0.113,0.004
26/09/2022,08:13:15,0.212,0.0,0.117,0.004
26/09/2022,08:14:05,0.217,0.0,0.119,0.002
26/09/2022,08:15:06,0.220,1.0,0.123,0.004
26/09/2022,08:16:05,0.223,1.0,0.127,0.004
26/09/2022,08:17:04,0.224,1.0,0.131,0.004
26/09/2022,08:18:05,0.230,1.0,0.134,0.003
26/09/2022,08:19:05,0.231,1.0,0.138,0.004
26/09/2022,08:20:13,0.238,1.0,0.143,0.005
26/09/2022,08:21:05,0.235,1.0,0.146,0.003
26/09/2022,08:22:05,0.231,1.0,0.15,0.004
26/09/2022,08:23:05,0.251,1.0,0.154,0.004
26/09/2022,08:24:05,0.260,1.0,0.158,0.004
26/09/2022,08:25:05,0.263,1.0,0.163,0.005
26/09/2022,08:26:05,0.268,1.0,0.167,0.004
26/09/2022,08:27:05,0.270,1.0,0.172,0.005
26/09/2022,08:28:05,0.276,1.0,0.176,0.004
26/09/2022,08:29:46,0.284,1.0,0.184,0.008
26/09/2022,08:31:05,0.286,1.0,0.19,0.006
26/09/2022,08:32:05,0.264,1.0,0.195,0.005
26/09/2022,08:33:05,0.263,1.0,0.199,0.004
26/09/2022,08:34:05,0.278,1.0,0.204,0.005
26/09/2022,08:35:05,0.274,1.0,0.208,0.004
26/09/2022,08:36:13,0.293,1.0,0.213,0.005
26/09/2022,08:37:05,0.274,1.0,0.217,0.004
26/09/2022,08:38:05,0.270,1.0,0.222,0.005
26/09/2022,08:39:05,0.270,1.0,0.226,0.004
26/09/2022,08:40:05,0.264,1.0,0.231,0.005
26/09/2022,08:41:05,0.278,1.0,0.235,0.004
26/09/2022,08:42:05,0.313,1.0,0.241,0.006
26/09/2022,08:43:05,0.319,1.0,0.246,0.005
26/09/2022,08:44:05,0.278,1.0,0.251,0.005
26/09/2022,08:45:05,0.330,1.0,0.256,0.005
26/09/2022,08:46:05,0.334,1.0,0.261,0.005
26/09/2022,08:47:05,0.326,1.0,0.267,0.006
26/09/2022,08:50:06,0.354,1.0,0.284,0.017
26/09/2022,08:51:05,0.299,1.0,0.289,0.005
26/09/2022,08:52:05,0.305,1.0,0.294,0.005
26/09/2022,08:53:05,0.368,1.0,0.3,0.006
26/09/2022,08:54:05,0.333,1.0,0.306,0.006
26/09/2022,08:55:05,0.354,1.0,0.312,0.006
26/09/2022,08:56:05,0.383,1.0,0.318,0.006
26/09/2022,08:57:05,0.356,1.0,0.325,0.007
26/09/2022,08:58:05,0.391,1.0,0.331,0.006
26/09/2022,08:59:05,0.398,1.0,0.338,0.007
26/09/2022,09:00:04,0.403,1.0,0.344,0.006
26/09/2022,09:01:05,0.410,1.0,0.351,0.007
26/09/2022,09:02:05,0.409,1.0,0.358,0.007
26/09/2022,09:03:05,0.419,1.0,0.365,0.007
26/09/2022,09:04:05,0.423,1.0,0.371,0.006
26/09/2022,09:05:05,0.433,1.0,0.378,0.007
26/09/2022,09:06:05,0.432,1.0,0.385,0.007
26/09/2022,09:07:21,0.441,1.0,0.395,0.01
26/09/2022,09:09:05,0.453,1.0,0.408,0.013
26/09/2022,09:10:05,0.381,1.0,0.415,0.007
26/09/2022,09:11:05,0.377,1.0,0.421,0.006
26/09/2022,09:12:06,0.480,1.0,0.429,0.008
26/09/2022,09:13:14,0.395,1.0,0.437,0.008
26/09/2022,09:14:03,0.371,1.0,0.443,0.006
26/09/2022,09:15:13,0.355,1.0,0.449,0.006
26/09/2022,09:16:13,0.336,1.0,0.455,0.006
26/09/2022,09:17:05,0.343,1.0,0.46,0.005
26/09/2022,09:18:05,0.420,1.0,0.466,0.006
26/09/2022,09:19:05,0.387,1.0,0.472,0.006
26/09/2022,09:20:05,0.524,1.0,0.48,0.008
26/09/2022,09:21:05,0.424,1.0,0.488,0.008
26/09/2022,09:22:05,0.513,1.0,0.496,0.008
26/09/2022,09:23:05,0.522,1.0,0.505,0.009
26/09/2022,09:24:05,0.560,1.0,0.514,0.009
26/09/2022,09:25:13,0.408,1.0,0.524,0.01
26/09/2022,09:26:13,0.451,1.0,0.532,0.008
26/09/2022,09:27:05,0.403,1.0,0.538,0.006
26/09/2022,09:28:05,0.373,1.0,0.544,0.006
26/09/2022,09:29:05,0.366,1.0,0.551,0.007
26/09/2022,09:30:05,0.369,1.0,0.557,0.006
26/09/2022,09:31:05,0.386,1.0,0.563,0.006
26/09/2022,09:32:05,0.410,1.0,0.57,0.007
26/09/2022,09:33:13,0.461,1.0,0.578,0.008
26/09/2022,09:34:05,0.612,1.0,0.585,0.007
26/09/2022,09:35:05,0.618,1.0,0.596,0.011
26/09/2022,09:36:06,0.467,1.0,0.606,0.01
26/09/2022,09:37:05,0.468,1.0,0.613,0.007
26/09/2022,09:38:05,0.562,1.0,0.621,0.008
26/09/2022,09:39:13,0.413,1.0,0.63,0.009
26/09/2022,09:40:05,0.403,1.0,0.636,0.006
26/09/2022,09:41:05,0.408,1.0,0.642,0.006
26/09/2022,09:42:06,0.398,1.0,0.649,0.007
26/09/2022,09:43:05,0.384,1.0,0.656,0.007
26/09/2022,09:44:05,0.416,1.0,0.663,0.007
26/09/2022,09:45:05,0.435,1.0,0.67,0.007
26/09/2022,09:46:05,0.505,1.0,0.677,0.007
26/09/2022,09:47:05,0.519,1.0,0.686,0.009
26/09/2022,09:48:06,0.603,1.0,0.695,0.009
26/09/2022,09:49:13,0.531,1.0,0.707,0.012
26/09/2022,09:50:05,0.534,1.0,0.714,0.007
26/09/2022,09:51:05,0.529,1.0,0.723,0.009
26/09/2022,09:52:05,0.553,1.0,0.732,0.009
26/09/2022,09:53:05,0.726,2.0,0.741,0.009
26/09/2022,09:54:05,0.564,1.0,0.752,0.011
26/09/2022,09:55:05,0.535,1.0,0.761,0.009
26/09/2022,09:56:05,0.516,1.0,0.77,0.009
26/09/2022,09:57:05,0.523,1.0,0.778,0.008
26/09/2022,09:58:05,0.598,1.0,0.788,0.01
26/09/2022,09:59:13,0.667,2.0,0.8,0.012
26/09/2022,10:00:05,0.600,1.0,0.808,0.008
26/09/2022,10:01:05,0.612,1.0,0.819,0.011
26/09/2022,10:02:06,0.607,1.0,0.829,0.01
26/09/2022,10:03:05,0.626,1.0,0.839,0.01
26/09/2022,10:04:05,0.569,1.0,0.849,0.01
26/09/2022,10:05:05,0.563,1.0,0.858,0.009
26/09/2022,10:06:05,0.615,1.0,0.868,0.01
26/09/2022,10:07:05,0.713,2.0,0.879,0.011
26/09/2022,10:08:05,0.815,2.0,0.892,0.013
26/09/2022,10:09:05,0.844,2.0,0.905,0.013
26/09/2022,10:10:05,0.715,2.0,0.919,0.014
26/09/2022,10:11:05,0.624,1.0,0.929,0.01